Regional Weather Roundup
Issued by NWS

Home | Current Version | Previous Version | Graphics & Text | Print | Product List | Glossary Off
Versions: 1 2 3 4 5 6 7 8 9 10 11 12 13 14 15 16 17 18 19 20 21 22 23 24 25 26 27 28 29 30 31 32 33 34 35 36 37 38 39 40 41 42 43 44 45 46 47 48 49 50

000
ASUS43 KTOP 291959
RWRKS

WEATHER ROUNDUP FOR KANSAS
NATIONAL WEATHER SERVICE GOODLAND KS
300 PM CDT FRI APR 29 2016

NOTE:  "FAIR" INDICATES FEW OR NO CLOUDS BELOW 12,000 FEET WITH NO
SIGNIFICANT WEATHER AND/OR OBSTRUCTIONS TO VISIBILITY.

KSZ001>006-013>018-027>032-041>047-292100-
NORTHWEST KANSAS

CITY           SKY/WX    TMP DP  RH WIND       PRES   REMARKS
GOODLAND       LGT RAIN  38  36  92 NE17      29.87F WCI  28
HAYS           CLOUDY    45  36  70 NE31G38   29.84F
HILL CITY      LGT RAIN  44  41  89 E26G36    29.87F
RUSSELL        LGT RAIN  44  42  93 NE26G36   29.87F FOG
$$

KSZ061>065-074>080-084>089-292100-
SOUTHWEST KANSAS

CITY           SKY/WX    TMP DP  RH WIND       PRES   REMARKS
DODGE CITY     CLOUDY    48  45  89 E30G40    29.75F
ELKHART          N/A     44  41  89 NW7         N/A
GARDEN CITY    CLOUDY    44  42  93 NE21G30   29.77F
GREAT BEND     CLOUDY    45  37  76 NE28G33   29.84F
LIBERAL        CLOUDY    48  43  81 E18       29.75F
$$

KSZ066>073-081>083-090>101-292100-
SOUTHEAST KANSAS

CITY           SKY/WX    TMP DP  RH WIND       PRES   REMARKS
CHANUTE        CLOUDY    63  52  67 NE16G22   29.81F
COFFEYVILLE    CLOUDY    69  57  65 E15G24    29.74F
HUTCHINSON     RAIN      45  43  93 NE23G36   29.79F FOG
MEDICINE LODGE   N/A     47  45  93 NE18G32   29.75F
NEWTON         CLOUDY    46  41  81 NW16      29.93R
PARSONS        CLOUDY    66  57  72 VRB7G17   29.78F
WICHITA INTL   TSTM      50  47  89 NW23      29.85R FOG
WICHITA JABRA  CLOUDY    51  32  48 W32G47    29.91R THUNDER
WICHITA MCCONL TSTM      50  48  93 NE13G40   29.75S FOG
WINFIELD       CLOUDY    56  53  90 E10G22    29.72F
$$

KSZ007>012-019>026-033>040-048>060-102>105-292100-
NORTHEAST KANSAS

CITY           SKY/WX    TMP DP  RH WIND       PRES   REMARKS
CONCORDIA      LGT RAIN  45  42  89 NE10      30.00R FOG
EMPORIA        RAIN      52  49  89 NE22      29.81F FOG
LAWRENCE       CLOUDY    56  48  74 E15G21    29.92F
MANHATTAN      LGT RAIN  49  44  83 NE12      29.94F
OLATHE IND     CLOUDY    58  48  69 NE15G24   29.92F
OLATHE EXE     CLOUDY    57  48  72 NE15G23   29.92F
SALINA         HVY RAIN  46  44  93 N15       29.97R FOG
TOPEKA BILLARD LGT RAIN  55  46  71 NE15      29.92F
TOPEKA FORBES  LGT RAIN  55  48  77 NE8       29.92F
$$



USA.gov is the U.S. government's official web portal to all federal, state and local government web resources and services.